Total_Precipitation_Accumulation
0.21 0.21 0.23 0.21 0.21 0.22 0.27 0.39 0.53 0.40 0.14 0.11 0.18 0.20 0.20 0.23 0.28 0.32 0.30 0.31 0.37 0.40 0.43 0.50 0.59 0.66 0.76 0.99 1.47 2.13 2.63 2.97 2.87 2.48 2.07 1.89 2.05 2.33
0.29 0.29 0.29 0.28 0.28 0.27 0.27 0.30 0.41 0.54 0.36 0.11 0.16 0.22 0.26 0.27 0.30 0.31 0.31 0.33 0.35 0.39 0.41 0.44 0.50 0.56 0.66 0.78 0.95 1.37 1.97 2.43 2.76 2.84 2.66 2.39 2.26 2.41
0.34 0.37 0.38 0.37 0.37 0.35 0.35 0.34 0.37 0.49 0.49 0.16 0.10 0.17 0.28 0.32 0.32 0.30 0.28 0.27 0.26 0.31 0.39 0.42 0.46 0.50 0.55 0.65 0.77 0.96 1.39 1.85 2.25 2.68 2.92 2.83 2.60 2.47
0.39 0.43 0.44 0.44 0.45 0.45 0.45 0.43 0.41 0.43 0.51 0.32 0.13 0.14 0.23 0.31 0.35 0.35 0.28 0.26 0.24 0.26 0.35 0.43 0.46 0.49 0.51 0.55 0.61 0.75 1.01 1.46 1.80 2.08 2.46 2.65 2.60 2.61
0.37 0.42 0.47 0.52 0.55 0.53 0.53 0.51 0.45 0.39 0.39 0.38 0.22 0.17 0.21 0.27 0.32 0.35 0.34 0.31 0.28 0.28 0.30 0.39 0.47 0.49 0.51 0.52 0.54 0.58 0.67 0.90 1.29 1.73 2.14 2.48 2.51 2.45
0.37 0.40 0.46 0.54 0.61 0.66 0.69 0.60 0.52 0.49 0.45 0.40 0.29 0.23 0.22 0.26 0.35 0.39 0.40 0.39 0.39 0.34 0.32 0.33 0.40 0.47 0.46 0.44 0.43 0.48 0.56 0.74 1.04 1.43 1.76 2.13 2.35 2.32
0.40 0.42 0.45 0.55 0.70 0.84 0.91 0.84 0.75 0.67 0.56 0.49 0.40 0.32 0.29 0.34 0.41 0.43 0.45 0.42 0.45 0.46 0.41 0.33 0.33 0.34 0.37 0.42 0.44 0.46 0.53 0.62 0.75 1.01 1.37 1.68 2.02 2.25
0.45 0.40 0.38 0.42 0.49 0.59 0.73 0.75 0.76 0.76 0.72 0.65 0.59 0.51 0.42 0.40 0.44 0.52 0.59 0.55 0.51 0.45 0.40 0.37 0.38 0.40 0.37 0.38 0.45 0.47 0.47 0.50 0.59 0.74 0.95 1.22 1.50 1.87
0.36 0.31 0.29 0.29 0.30 0.29 0.35 0.36 0.40 0.50 0.64 0.72 0.75 0.68 0.57 0.51 0.54 0.61 0.67 0.68 0.58 0.54 0.50 0.53 0.48 0.46 0.43 0.47 0.54 0.49 0.49 0.51 0.52 0.56 0.70 0.91 1.13 1.41
0.28 0.30 0.30 0.28 0.26 0.28 0.32 0.32 0.30 0.32 0.45 0.57 0.68 0.70 0.68 0.65 0.68 0.76 0.84 0.85 0.75 0.68 0.66 0.71 0.67 0.57 0.52 0.50 0.57 0.54 0.48 0.48 0.50 0.53 0.58 0.68 0.86 1.10
0.25 0.35 0.37 0.32 0.29 0.30 0.37 0.36 0.29 0.27 0.31 0.45 0.57 0.60 0.63 0.73 0.83 0.91 0.95 1.00 1.04 1.00 0.91 0.92 0.88 0.74 0.65 0.59 0.60 0.63 0.59 0.53 0.51 0.53 0.57 0.60 0.69 0.88
0.23 0.33 0.50 0.44 0.36 0.30 0.32 0.30 0.26 0.24 0.22 0.23 0.26 0.30 0.34 0.42 0.59 0.82 0.96 0.99 1.09 1.17 1.11 1.04 1.04 0.92 0.86 0.75 0.61 0.55 0.57 0.64 0.63 0.61 0.64 0.66 0.71 0.75
0.24 0.34 0.48 0.41 0.33 0.26 0.23 0.23 0.25 0.25 0.22 0.19 0.18 0.20 0.24 0.32 0.44 0.62 0.80 0.93 1.00 1.07 1.06 1.08 1.12 1.01 0.89 0.81 0.69 0.61 0.52 0.49 0.52 0.62 0.71 0.77 0.81 0.80
0.25 0.27 0.34 0.31 0.26 0.20 0.16 0.16 0.16 0.15 0.13 0.12 0.11 0.12 0.17 0.26 0.38 0.51 0.66 0.78 0.90 0.98 0.95 0.97 1.04 0.99 0.85 0.70 0.66 0.70 0.64 0.57 0.50 0.51 0.58 0.82 0.93 0.94
0.29 0.40 0.31 0.20 0.14 0.10 0.08 0.08 0.07 0.06 0.06 0.07 0.07 0.08 0.11 0.18 0.25 0.35 0.47 0.60 0.69 0.79 0.85 0.85 0.89 0.94 0.91 0.76 0.59 0.62 0.71 0.74 0.65 0.56 0.57 0.64 0.75 0.84
0.19 0.24 0.21 0.11 0.06 0.04 0.03 0.03 0.03 0.04 0.05 0.07 0.06 0.06 0.07 0.10 0.16 0.26 0.38 0.50 0.61 0.71 0.79 0.86 0.92 1.01 1.02 0.88 0.70 0.63 0.65 0.78 0.80 0.68 0.60 0.61 0.66 0.69
0.22 0.16 0.12 0.08 0.06 0.04 0.02 0.02 0.02 0.02 0.03 0.04 0.05 0.06 0.07 0.09 0.13 0.21 0.34 0.44 0.58 0.70 0.80 0.93 1.03 1.11 1.18 1.15 1.02 0.84 0.73 0.72 0.79 0.78 0.68 0.68 0.74 0.74
0.19 0.15 0.10 0.07 0.05 0.04 0.03 0.02 0.02 0.02 0.03 0.05 0.06 0.07 0.10 0.12 0.14 0.18 0.28 0.40 0.51 0.62 0.72 0.87 1.04 1.20 1.37 1.47 1.33 1.08 0.87 0.82 0.90 0.95 0.82 0.73 0.78 0.76
0.13 0.09 0.07 0.06 0.05 0.04 0.03 0.03 0.03 0.02 0.04 0.06 0.07 0.08 0.11 0.14 0.16 0.19 0.25 0.36 0.47 0.57 0.67 0.77 0.95 1.18 1.33 1.44 1.52 1.30 1.01 0.87 0.95 1.11 1.06 0.81 0.71 0.69
0.09 0.08 0.06 0.05 0.05 0.05 0.04 0.04 0.03 0.03 0.03 0.05 0.06 0.07 0.11 0.16 0.19 0.20 0.26 0.38 0.48 0.57 0.65 0.77 0.94 1.11 1.20 1.11 1.16 1.34 1.24 1.01 0.96 1.11 1.15 0.96 0.86 0.92
0.07 0.06 0.06 0.06 0.06 0.06 0.05 0.04 0.04 0.04 0.04 0.05 0.06 0.07 0.10 0.15 0.18 0.20 0.25 0.35 0.49 0.58 0.66 0.76 0.94 1.10 1.17 1.12 1.15 1.32 1.39 1.34 1.14 1.06 1.02 0.93 0.92 0.99
0.07 0.08 0.06 0.06 0.07 0.06 0.06 0.05 0.05 0.04 0.04 0.05 0.06 0.07 0.09 0.14 0.18 0.20 0.25 0.34 0.45 0.55 0.64 0.74 0.87 1.08 1.29 1.35 1.35 1.35 1.39 1.44 1.51 1.42 1.22 0.92 0.75 0.75
0.12 0.10 0.09 0.08 0.08 0.07 0.07 0.06 0.05 0.05 0.04 0.06 0.07 0.08 0.11 0.15 0.17 0.21 0.26 0.33 0.42 0.49 0.57 0.69 0.87 1.09 1.31 1.36 1.36 1.33 1.26 1.24 1.31 1.40 1.57 1.38 0.96 0.68